Location: Del Amo
(33.8464°N, 118.2104°W)
Time: 19:51:58
(UTC+00:00)

S-56A Canister/Altair - Pass Details

Date: 15 September 2024
Orbit: 636 x 2487 km, 38.9° (Epoch: 14 October)

Event Time Altitude Azimuth Distance (km) Brightness Sun altitude
Rises 10:01:55 0° 283° (WNW) 5,060 - -41.7°
Reaches altitude 10° 10:05:46 10° 270° (W) 4,337 - -41.1°
Maximum altitude 10:14:55 25° 222° (SW) 3,732 - -39.6°
Drops below altitude 10° 10:25:39 10° 175° (S) 5,116 - -37.9°
Exits shadow 10:27:36 - 170° (S) 5,489 11.6 -37.6°
Sets 10:30:50 0° 163° (SSE) 6,144 12.0 -37.0°
